Wind_Speed
11 9 10 13 15 15 15 15 16 16 17 14 8 5 5 3 6 10 12 16 20 25 27 31 32 31 33 30 29 27 31 29 25 24 24 26 33 32 29 32 34 31 34
10 11 11 11 14 14 13 14 14 13 13 11 11 8 9 8 9 7 9 12 15 19 25 29 36 36 34 32 32 31 27 28 34 21 13 7 14 27 33 32 34 33 38
11 8 10 11 12 12 12 12 12 11 11 13 12 10 10 8 8 5 11 10 13 16 19 24 33 34 36 33 34 34 35 28 29 38 15 3 7 10 26 33 34 34 32
12 8 10 9 12 10 10 11 10 10 9 8 8 9 11 11 11 13 11 11 12 15 15 16 21 28 31 34 35 35 34 34 27 26 37 35 8 4 4 28 33 35 37
10 8 7 6 12 8 10 12 12 11 11 12 12 12 13 14 15 15 14 11 13 13 13 15 15 16 20 25 28 29 39 33 36 30 29 37 34 12 1 2 20 30 34
7 7 10 7 17 10 6 6 8 11 13 15 15 15 17 18 19 19 19 17 15 14 15 15 16 17 18 18 20 20 22 34 37 39 33 33 26 26 14 2 13 19 32
8 3 7 7 7 5 5 8 12 14 16 19 22 21 21 21 22 22 22 20 18 15 15 14 15 13 14 17 17 20 19 21 25 26 30 25 31 30 31 21 11 10 19
7 5 8 12 11 13 12 14 15 18 22 23 21 23 21 22 22 22 25 24 21 18 18 17 14 15 14 14 16 16 18 18 20 23 32 29 27 31 26 26 18 6 11
6 3 5 6 10 13 15 15 16 17 19 24 20 20 21 24 26 26 27 29 25 25 24 23 18 16 17 14 14 16 18 16 17 21 24 28 31 28 30 32 31 25 10
4 5 6 9 10 12 15 15 15 18 21 21 19 19 19 19 21 24 26 26 27 29 31 29 24 20 20 18 15 16 16 16 17 17 19 24 29 30 32 34 35 35 27
4 5 6 8 11 9 10 13 19 17 18 25 16 20 19 19 24 21 20 22 23 29 34 43 36 19 18 21 18 22 20 18 18 17 18 23 28 30 31 34 36 35 34
4 5 5 9 10 11 13 16 21 20 15 18 21 18 19 18 20 22 19 20 25 27 30 39 40 25 20 21 19 20 22 22 19 20 20 25 24 26 30 31 34 36 38
3 5 5 6 8 11 14 16 18 23 19 20 24 24 23 22 22 22 25 27 25 30 30 24 30 28 26 33 22 17 20 22 24 25 23 22 22 25 24 30 34 36 35
5 6 7 9 12 14 17 17 19 21 24 23 24 24 25 26 24 25 28 31 31 28 26 25 20 30 29 27 21 18 20 24 26 29 26 24 23 25 26 27 28 29 24
8 10 10 8 13 14 16 19 21 22 24 25 25 26 26 26 27 29 30 31 30 30 31 32 23 23 27 27 28 20 21 26 27 27 26 27 24 23 27 29 27 25 24
10 11 11 11 16 19 21 23 25 25 25 25 26 28 29 30 29 30 29 30 31 33 32 22 17 21 25 27 28 24 22 26 27 27 25 24 20 21 23 21 21 31 29
12 10 13 15 19 20 22 22 23 24 25 25 27 27 28 29 30 31 28 27 27 30 20 19 16 20 26 25 18 15 21 26 27 25 22 21 16 13 15 14 15 9 15
11 12 14 17 20 22 25 26 26 26 25 25 25 26 26 26 28 29 28 21 20 21 18 21 28 23 20 20 21 24 24 25 25 23 20 18 15 10 13 11 6 14 19
11 13 17 20 21 21 24 27 28 25 25 26 28 27 29 30 28 28 25 24 25 22 17 17 20 24 29 29 23 23 23 23 24 20 17 16 14 11 14 13 15 14 15
16 17 20 21 22 22 24 25 25 25 23 26 29 31 29 26 24 25 25 20 22 25 21 24 29 29 30 28 25 21 20 21 20 17 13 15 14 9 15 16 19 18 17
17 19 20 19 21 24 26 24 24 24 28 30 30 28 27 25 24 23 25 24 23 24 26 27 26 25 26 30 25 20 19 20 19 15 14 13 15 15 15 15 18 20 20
17 17 18 19 22 23 23 24 24 27 30 30 28 29 27 26 23 22 23 22 24 23 22 22 25 25 27 26 22 19 16 18 18 15 14 14 17 17 17 19 22 28 30
14 16 17 20 21 21 21 21 25 29 29 27 28 27 27 25 27 23 25 22 20 20 19 17 21 22 23 22 18 15 13 16 15 13 12 15 20 20 19 25 29 30 29
13 15 17 18 18 19 19 22 24 28 27 26 26 26 26 26 25 23 22 20 18 16 17 16 16 18 19 19 15 14 11 14 12 12 17 26 27 24 28 29 26 27 26
13 13 15 16 19 20 20 21 22 24 25 25 24 24 22 24 22 24 21 20 22 21 21 19 17 17 17 17 16 15 16 18 18 24 26 24 23 27 22 21 22 25 26
12 13 14 16 17 18 18 20 21 23 24 23 20 21 21 20 21 20 22 20 20 21 22 22 22 22 23 22 17 15 18 22 28 27 22 19 21 22 21 22 22 22 22
Wind_Direction
130 114 84 71 71 55 59 57 53 35 34 34 20 14 314 296 312 313 294 280 264 257 252 250 249 254 252 245 240 232 222 222 220 228 240 230 224 220 223 218 216 202 196
140 119 100 78 69 63 52 57 55 45 35 27 7 5 336 318 296 289 277 284 280 266 262 260 252 253 258 253 247 243 226 218 216 213 211 232 226 223 224 220 214 213 203
134 138 108 80 72 60 42 43 37 40 33 13 8 355 339 304 295 286 312 284 268 264 264 266 258 255 257 248 250 245 228 221 218 213 201 192 217 205 222 223 215 212 204
130 127 127 117 100 52 35 23 19 13 8 1 349 338 313 309 315 304 287 285 292 289 289 278 270 264 249 242 258 243 240 215 223 217 227 233 208 206 204 219 217 212 211
136 144 121 115 99 65 34 11 358 348 341 331 319 315 308 306 304 300 302 290 285 275 276 279 268 270 276 272 266 268 240 226 229 228 216 228 239 236 196 225 207 216 212
141 146 140 109 110 94 43 3 329 334 324 313 300 287 285 286 289 288 291 290 276 283 275 273 280 283 278 287 282 283 282 244 230 228 223 223 221 231 221 229 216 208 206
159 169 77 67 54 49 14 350 348 329 316 310 310 298 285 281 278 280 282 274 275 270 271 271 276 283 286 286 293 294 296 280 268 256 249 248 239 234 220 208 195 204 210
106 70 41 26 359 357 357 351 342 332 321 312 304 306 303 301 286 281 283 281 272 275 274 271 276 280 291 293 293 293 297 301 285 275 260 258 251 237 227 215 187 207 208
92 43 18 358 355 347 340 341 333 317 309 309 308 303 302 292 285 287 285 285 284 279 273 265 260 273 276 281 290 292 296 293 294 290 278 268 258 247 233 225 217 211 202
58 10 358 0 347 333 330 326 319 314 313 309 300 297 299 312 312 298 292 290 289 286 279 269 262 267 272 279 276 284 288 289 285 277 278 276 267 250 237 226 220 218 223
30 352 345 344 324 315 317 320 314 306 308 302 317 321 323 325 315 314 320 313 320 329 343 318 278 264 282 285 288 291 284 280 280 276 280 283 278 260 243 230 223 220 217
356 321 332 328 324 330 332 325 323 305 307 319 312 296 306 315 318 316 318 318 319 319 310 307 317 311 301 287 278 275 278 276 274 276 276 277 273 268 260 240 227 223 221
302 321 310 318 330 337 326 317 306 311 311 299 301 306 306 298 300 306 312 306 302 308 295 308 314 326 323 301 295 282 272 272 278 273 271 275 271 271 268 251 233 226 222
307 326 339 330 322 316 305 301 302 297 302 302 302 295 290 294 291 283 285 285 289 293 293 299 313 311 292 285 295 283 279 282 283 277 278 284 280 275 272 264 249 224 214
340 333 321 313 308 308 312 312 308 308 306 303 300 297 293 291 291 291 291 287 276 275 281 284 285 285 285 296 293 284 281 282 283 283 281 275 285 282 278 264 255 226 205
317 310 300 326 336 328 320 313 307 302 299 296 295 297 298 295 291 288 284 283 282 273 272 272 289 305 302 292 289 286 279 286 283 286 287 280 287 294 272 265 242 222 205
304 338 342 331 316 310 309 309 312 314 312 310 309 304 299 294 290 286 291 292 290 287 272 287 294 302 303 305 291 294 294 286 281 282 285 284 280 285 265 245 215 213 185
347 332 318 315 318 319 318 317 315 311 310 310 316 320 319 319 315 312 307 301 312 310 296 298 304 297 301 302 304 297 291 284 279 276 275 269 255 282 223 234 247 161 184
325 318 315 314 317 322 323 324 322 325 327 322 320 321 323 320 320 315 306 324 323 314 323 311 303 306 298 300 294 293 289 281 274 269 261 252 233 255 242 215 189 173 167
324 323 319 321 322 328 334 327 323 320 325 329 323 316 311 312 312 317 311 308 301 303 308 301 299 298 293 297 295 289 285 274 266 262 237 231 225 245 223 195 167 140 153
325 324 323 325 330 336 327 322 324 328 324 319 314 311 312 309 304 302 301 306 308 311 299 297 290 287 287 289 292 282 279 267 255 238 214 220 218 181 188 188 172 153 148
324 325 332 333 329 326 334 332 327 325 323 316 315 313 309 309 297 299 299 304 302 294 288 285 284 288 289 288 285 282 276 260 249 232 219 210 199 186 172 166 156 144 134
333 338 331 327 328 332 329 330 328 325 319 316 314 312 308 307 302 300 301 296 292 282 278 283 291 292 289 290 292 291 271 239 239 236 215 186 169 158 159 154 150 144 131
341 337 333 326 323 322 326 326 323 329 323 313 308 310 311 307 307 302 301 292 289 284 284 280 280 286 288 290 290 289 241 219 216 189 169 154 147 147 142 140 139 135 132
340 336 328 324 322 324 320 322 324 331 324 320 312 308 308 312 311 310 306 305 304 295 289 287 287 291 289 289 289 276 226 203 180 151 141 139 138 135 140 132 130 130 129
339 334 329 325 324 326 325 327 331 326 324 319 319 319 316 315 315 314 312 313 309 310 303 295 293 295 284 284 277 257 228 195 169 153 151 149 147 145 141 135 135 133 132
Height
766 773 776 776 777 777 778 779 780 779 779 779 782 782 783 782 784 786 785 785 784 784 785 784 784 785 786 786 787 787 786 788 792 796 796 793 794 795 797 799 802 802 804
765 773 778 779 780 781 781 781 782 782 782 782 783 784 783 782 783 782 782 782 782 782 782 781 780 780 781 780 780 781 780 781 784 786 789 791 790 789 790 790 792 794 796
766 774 778 780 781 782 783 783 783 783 784 786 785 785 784 782 780 780 779 778 777 777 775 775 774 775 775 774 774 773 774 774 775 776 778 782 778 782 781 781 782 787 789
764 772 776 778 780 784 784 785 785 785 785 784 784 785 783 782 781 779 777 776 774 772 771 771 770 768 767 765 766 765 765 764 767 768 769 765 766 771 772 771 774 776 778
766 771 774 777 780 783 785 785 785 785 785 785 785 784 782 781 779 777 775 772 771 771 768 766 765 763 762 762 762 757 755 751 759 761 755 761 763 762 766 766 764 773 771
766 768 771 775 779 783 785 786 785 785 784 783 782 781 780 778 777 775 773 770 768 766 765 762 762 760 758 757 756 754 752 748 748 750 748 749 753 752 757 763 765 757 761
765 767 769 773 777 780 782 783 784 784 783 782 780 779 777 775 773 771 768 766 763 762 761 759 758 757 756 755 754 751 747 747 747 746 744 744 742 742 744 749 754 759 762
765 767 772 776 778 780 781 781 781 781 781 779 776 775 773 771 769 767 765 762 760 759 759 758 754 754 752 751 750 748 745 744 744 742 741 738 739 741 741 743 746 756 752
767 770 773 775 777 778 779 779 779 779 779 777 774 772 770 768 765 763 761 759 757 757 755 752 750 747 746 744 744 744 743 741 741 740 738 735 734 733 733 736 735 735 743
766 769 771 773 775 776 777 778 778 777 776 774 771 769 768 766 763 760 758 755 754 753 750 745 742 740 741 740 737 738 738 737 737 735 735 734 731 728 726 727 726 727 727
766 769 771 773 774 775 776 777 776 774 773 771 768 766 765 763 761 757 755 753 751 750 742 742 740 734 734 734 733 735 734 733 732 732 731 729 728 723 719 718 719 719 720
766 768 770 772 773 774 774 775 774 771 769 768 765 763 762 759 756 754 751 748 745 743 745 745 739 733 726 730 726 728 729 728 725 727 725 721 722 717 715 713 710 711 713
764 766 767 769 770 772 772 772 771 770 767 765 763 760 757 755 752 750 748 745 742 739 737 735 733 728 731 732 723 722 723 722 721 721 719 714 714 711 709 706 702 702 705
762 763 765 767 767 768 769 768 766 765 763 761 758 755 752 750 746 744 742 739 736 733 730 726 722 729 727 725 720 720 718 719 714 713 707 704 704 704 701 699 696 695 697
760 763 765 765 765 764 764 764 762 761 759 756 753 749 746 743 740 738 736 733 730 727 723 719 716 715 716 715 715 713 714 712 708 704 701 700 699 697 695 692 690 689 690
760 761 762 762 763 763 762 760 758 756 754 750 747 744 741 738 734 730 727 725 723 719 716 715 714 714 714 713 709 708 708 704 702 698 694 694 693 689 687 685 683 683 685
758 759 762 763 764 762 760 756 754 751 748 745 741 738 735 732 728 725 721 718 715 712 709 709 708 708 705 705 705 704 703 699 695 693 690 688 688 687 685 683 682 683 683
760 763 764 763 762 759 756 753 750 747 743 740 736 734 732 728 726 722 717 712 710 708 706 706 710 707 700 701 701 700 697 694 690 689 686 685 686 684 684 683 684 684 686
760 761 761 760 756 755 753 750 747 744 741 738 735 732 730 727 723 720 716 712 710 708 703 703 702 699 696 696 696 695 691 688 686 685 684 682 683 683 683 683 684 686 690
758 758 758 757 755 753 751 749 745 742 738 737 734 730 727 723 720 717 714 710 707 703 699 696 696 696 693 691 690 689 686 684 683 682 681 681 680 681 682 683 684 687 690
757 757 757 756 754 752 751 746 743 741 739 735 731 727 723 719 716 711 711 706 701 697 697 695 693 692 690 686 684 683 681 680 679 679 678 678 679 678 683 684 685 688 691
756 756 756 756 756 754 750 746 743 741 737 732 727 723 719 715 712 708 705 702 699 696 693 691 688 687 684 681 679 677 677 676 676 676 677 678 679 680 683 686 688 692 694
757 757 758 757 756 753 751 747 744 739 733 729 724 720 715 712 708 705 701 698 695 692 689 687 684 681 678 676 675 673 672 673 673 674 674 676 680 683 685 689 692 695 699
758 759 758 757 755 753 749 747 741 737 731 726 721 717 712 707 703 700 697 695 692 689 686 683 679 676 674 671 670 669 669 670 671 673 675 678 681 683 689 693 696 699 703
759 759 757 756 754 751 748 743 738 734 730 724 718 712 708 703 700 697 694 691 688 687 682 679 677 674 670 668 667 666 666 667 669 673 677 680 684 684 692 696 700 703 707
758 757 756 756 754 748 744 740 736 732 728 722 715 710 705 701 697 693 689 687 685 682 678 675 672 668 666 664 662 662 663 664 667 671 675 680 683 686 691 695 701 705 709